Theta_e
289 289 290 290 290 290 291 291 291 292 292 292 292 293 293 294 295 295 296 297 298 299 301 301 301 302 302 302 300 301 302 304 304 305 306 306 307 308 308 309 310 310 309 310 310 308 307 306 306 305 304 304 304 304 302 300 298 297 295 293 292 289 288 287 288 289 288 287 286 284 285 285 287 289 288 289 289 288 288 289 288 288 287 287 289
288 288 289 289 289 289 290 290 291 290 291 291 291 291 292 293 293 294 295 296 296 297 298 299 299 297 298 297 298 300 300 301 301 301 301 302 302 303 304 305 306 305 305 307 307 307 306 304 304 304 303 303 302 301 300 298 296 296 294 293 293 292 290 288 290 290 287 285 285 285 284 285 286 287 287 288 288 288 289 289 289 289 288 288 287
287 287 288 288 288 288 289 289 290 290 290 290 291 291 291 292 292 293 293 294 295 296 296 296 297 298 298 297 298 297 297 297 297 297 299 300 300 300 300 301 301 302 302 302 303 304 304 304 302 302 301 301 301 300 299 298 297 296 294 296 293 292 291 290 290 290 287 283 282 283 281 283 285 286 287 287 287 288 287 288 288 288 288 288 288
286 286 286 287 287 287 288 288 288 289 289 290 290 290 291 291 291 291 292 293 293 294 295 295 296 296 296 296 296 296 295 296 297 298 298 300 300 300 299 299 299 299 298 299 299 298 299 301 301 300 299 299 300 300 298 298 297 296 294 294 295 292 290 290 292 291 286 287 283 285 280 281 279 283 286 285 286 288 288 287 286 288 288 287 286
285 285 286 286 286 286 286 287 287 287 288 288 289 289 290 290 290 291 291 291 292 293 294 294 295 295 295 296 296 295 295 294 294 294 294 294 296 296 296 297 298 297 297 297 297 297 296 296 297 297 298 298 299 298 298 298 298 297 296 294 293 294 292 291 291 292 290 290 287 280 280 281 280 279 281 282 283 285 286 286 287 287 287 287 286
285 285 285 285 285 285 286 286 286 286 287 287 288 289 289 289 290 290 290 291 291 291 292 293 293 292 292 292 291 291 290 290 290 290 291 291 291 292 293 294 294 296 296 296 295 295 296 295 293 295 295 295 297 298 297 297 296 295 295 295 294 293 294 292 290 292 292 290 288 285 284 282 281 279 283 281 281 283 285 285 286 286 286 286 286
285 285 285 285 285 285 285 285 285 286 286 287 288 288 288 288 289 289 289 289 290 290 291 291 291 291 290 290 289 289 288 289 289 290 290 291 291 291 291 292 292 292 293 293 294 294 294 294 294 293 292 292 292 294 295 296 296 296 296 295 294 294 292 291 290 291 291 291 290 289 286 284 281 282 281 280 280 280 283 285 285 284 285 285 286
284 284 284 284 284 284 284 285 285 285 285 286 286 287 287 287 288 288 288 288 289 290 290 290 289 289 289 289 289 288 288 287 288 289 290 290 290 290 290 290 291 291 291 291 291 292 292 293 293 293 292 292 290 291 292 293 295 295 295 295 294 293 293 291 291 291 290 291 292 291 289 286 282 283 281 283 282 281 281 282 282 284 283 285 286
284 284 284 284 284 284 285 285 285 285 285 285 285 286 286 287 287 287 287 287 287 288 288 289 289 289 288 288 287 288 288 287 288 289 288 289 288 288 289 289 289 290 290 290 290 290 290 291 292 292 292 291 290 291 289 290 290 291 292 293 293 293 292 292 291 291 290 290 290 289 289 289 287 286 283 282 282 280 281 280 282 282 283 284 285
284 284 284 284 284 284 284 285 285 285 285 285 285 285 285 286 286 286 286 286 286 286 286 287 287 288 287 287 286 286 287 287 287 287 287 287 287 287 287 287 288 288 288 288 289 289 289 290 291 291 291 291 290 290 289 290 290 289 289 290 291 291 292 292 291 291 291 291 291 291 289 287 285 285 285 285 283 282 284 282 280 282 282 284 286
283 283 283 283 284 284 284 284 284 284 284 284 284 284 284 284 285 285 285 286 286 285 285 285 285 285 285 285 285 285 285 285 285 285 285 285 285 285 286 286 287 286 287 287 287 288 288 289 289 290 290 290 290 290 290 290 290 289 289 287 287 288 289 291 291 291 290 290 289 289 289 289 288 286 285 285 286 285 283 283 281 282 283 283 283
283 283 283 283 284 284 284 284 284 283 283 283 283 283 283 283 283 283 284 284 285 285 285 284 284 284 284 284 284 284 284 284 283 283 283 283 283 283 284 284 284 285 285 285 286 286 287 287 288 288 288 288 289 289 289 289 289 289 288 287 286 285 285 286 287 288 289 289 289 289 289 289 289 288 287 287 286 286 286 285 283 280 281 282 282
282 282 282 283 282 282 283 283 283 283 283 282 282 282 282 282 282 282 282 283 283 284 283 283 283 283 283 283 283 283 283 283 283 283 283 283 283 283 283 283 283 283 284 284 284 285 285 285 286 286 286 287 287 287 288 288 288 287 287 286 286 285 286 284 284 285 287 287 288 289 289 289 288 289 289 288 287 287 286 285 284 280 283 280 280
282 282 282 282 282 282 282 282 282 282 282 282 282 281 281 281 281 281 281 282 282 283 283 282 282 282 282 282 282 282 282 282 282 282 282 282 282 282 282 282 282 282 282 283 283 284 284 284 284 284 285 285 286 286 286 286 286 286 285 285 285 286 284 283 283 283 283 284 284 285 285 286 287 288 288 288 287 286 285 285 286 282 280 282 279
281 282 282 283 283 283 283 282 281 282 282 281 280 280 280 281 281 281 281 281 281 281 282 282 282 282 282 282 282 282 281 281 281 282 281 282 282 281 281 281 281 282 282 282 283 283 283 283 283 283 283 284 284 285 285 285 285 285 285 285 285 286 285 284 284 283 284 284 284 283 284 284 284 285 286 287 288 288 287 286 285 285 284 282 281
282 282 282 282 282 282 282 282 281 281 281 281 281 280 280 280 280 280 280 280 280 281 281 281 281 281 281 281 281 282 282 281 281 281 281 281 281 281 281 280 281 281 282 282 282 282 282 282 282 282 282 283 283 283 283 284 284 284 285 285 285 287 285 284 285 283 284 283 283 283 283 283 284 284 284 285 285 287 287 287 285 285 283 283 282
281 282 281 282 282 282 282 282 282 282 281 281 281 281 281 281 281 281 281 280 280 280 280 280 281 280 280 280 280 280 280 280 280 279 280 280 280 280 280 280 280 281 281 281 281 280 281 281 281 281 282 282 282 282 282 282 283 283 283 284 284 285 284 284 285 284 284 284 283 283 283 284 283 283 283 283 283 284 285 286 287 286 286 283 283
281 281 281 281 282 282 282 282 282 282 282 282 283 283 281 280 280 280 280 279 279 279 279 279 279 280 279 279 279 279 279 279 279 279 279 280 280 280 280 280 279 280 280 281 280 280 280 281 280 280 280 281 281 281 282 282 282 283 283 283 283 283 283 284 284 284 284 284 284 284 283 283 284 283 283 283 283 284 283 284 285 286 286 285 285
281 281 281 282 282 282 282 283 283 282 282 282 282 282 282 281 280 280 279 279 279 280 279 279 279 280 280 278 278 279 278 278 278 278 278 278 278 278 278 279 279 280 280 280 280 280 280 280 280 280 280 280 279 280 280 281 281 282 282 282 282 282 282 283 284 284 284 284 284 284 284 283 284 283 283 283 283 283 283 283 284 284 284 285 285
281 282 282 282 283 283 283 283 283 283 283 283 283 282 281 280 280 279 279 278 278 278 278 279 279 278 278 278 277 277 278 278 277 277 278 277 277 278 278 278 279 279 278 278 278 278 279 279 279 280 280 280 280 280 280 280 280 280 281 281 282 283 283 283 283 283 284 284 283 283 283 283 284 283 283 283 283 282 283 283 283 283 284 284 285
282 283 283 282 283 283 283 283 284 283 283 282 280 280 280 279 278 278 278 278 278 278 278 278 278 277 277 276 277 277 277 277 277 277 277 277 277 278 277 277 277 278 278 278 278 278 278 278 278 279 279 279 279 280 280 280 280 280 280 280 281 281 281 282 283 284 284 283 283 283 283 284 284 283 283 283 283 283 282 282 282 282 283 283 283
281 281 280 280 280 280 281 281 281 281 281 280 280 279 279 278 278 278 278 278 278 278 278 277 277 277 276 276 276 276 276 276 276 276 277 277 277 277 277 277 277 277 277 277 277 278 278 278 278 278 278 278 278 279 279 279 279 279 279 281 281 280 280 280 281 281 283 284 284 283 283 283 283 283 283 283 283 283 282 282 282 281 282 283 283
282 281 281 281 281 282 282 282 282 282 282 281 280 279 279 278 278 278 278 279 278 278 277 277 277 276 276 276 275 276 275 275 275 276 276 277 277 277 277 277 277 277 276 276 276 276 277 277 277 277 277 278 278 278 278 278 278 279 279 279 280 279 279 280 280 280 281 282 282 283 283 284 284 283 283 283 283 283 283 283 283 282 282 282 282
282 282 281 282 281 281 281 280 280 279 279 280 280 279 279 279 278 277 278 278 277 277 277 277 276 276 276 276 276 275 275 275 275 275 275 276 276 277 277 277 277 277 277 277 276 276 276 276 276 276 276 276 277 277 278 278 278 278 278 279 279 279 279 279 280 280 280 281 281 281 282 283 284 283 283 283 283 283 283 283 283 283 283 283 282
279 279 279 279 279 279 279 279 279 279 279 279 280 279 279 279 278 278 279 278 277 277 276 276 275 276 276 275 276 275 275 275 275 275 275 275 276 276 276 276 276 276 276 276 276 275 276 275 276 276 276 276 276 277 277 277 277 278 278 278 278 279 279 279 280 280 281 280 281 281 281 282 282 282 283 283 283 283 284 284 283 283 283 283 283
279 278 278 279 279 278 278 279 279 279 279 279 279 279 278 278 277 277 277 278 277 276 276 276 275 276 276 276 276 276 276 275 275 275 275 275 275 275 275 275 275 276 275 275 275 275 275 275 275 275 275 275 276 276 276 276 276 277 277 277 278 278 278 279 279 280 280 280 280 281 281 281 281 281 281 282 283 283 283 284 284 284 284 284 284
279 279 278 278 278 278 279 278 279 278 278 278 279 279 278 278 278 277 277 276 277 277 276 275 275 276 276 276 275 275 275 275 276 276 276 275 275 275 275 275 275 275 275 275 275 275 275 275 275 275 275 275 275 275 276 275 276 276 276 276 277 277 277 278 279 279 279 280 280 280 281 281 281 281 281 281 282 282 283 283 284 284 284 284 284
277 277 277 278 279 278 278 278 278 278 278 278 278 279 279 278 278 278 277 277 278 277 276 276 276 277 276 276 276 275 275 276 276 276 276 276 276 276 275 275 275 275 275 275 275 275 276 275 275 275 275 275 275 275 274 275 275 275 275 276 276 277 277 278 278 278 279 279 280 280 280 281 281 281 281 282 282 282 283 282 283 284 284 283 283
277 278 278 278 278 278 278 277 277 277 277 278 278 278 278 278 278 278 278 278 277 276 276 276 275 276 276 276 275 276 276 275 275 275 275 275 275 275 275 275 275 275 276 275 276 275 275 275 275 275 275 275 275 274 275 275 275 275 276 276 276 277 277 277 278 278 279 279 279 280 280 281 281 283 284 284 285 285 282 282 283 283 283 283 283
277 278 278 278 278 278 278 277 277 277 278 278 278 278 278 279 279 278 278 277 276 276 276 275 275 275 275 275 275 275 275 275 274 275 275 275 275 275 275 275 275 275 275 275 275 275 275 274 274 274 274 274 274 274 276 279 280 278 277 277 277 277 277 276 276 277 277 278 278 279 280 282 283 284 284 285 286 287 287 285 283 283 283 283 283
278 278 278 278 277 277 277 277 278 278 278 279 279 279 279 279 279 278 278 277 277 276 275 274 275 275 275 275 274 274 274 274 274 274 273 273 274 273 273 273 273 273 273 273 274 273 273 273 273 273 273 273 273 274 277 279 280 281 278 277 276 276 276 276 276 276 276 276 277 278 278 280 281 282 282 284 286 286 287 287 287 287 286 284 282
278 278 278 277 277 277 277 277 278 278 278 278 279 279 279 279 278 278 276 275 275 274 274 274 274 274 274 274 274 274 274 273 273 272 272 271 271 271 271 271 271 271 271 272 271 271 272 272 272 272 272 272 272 275 277 278 279 280 280 277 276 276 276 276 276 276 276 276 276 277 278 279 279 279 280 280 282 284 285 286 287 287 287 288 288
279 279 279 278 278 278 278 278 278 279 278 279 279 279 279 279 278 276 275 275 274 273 273 273 273 273 273 273 273 272 271 271 271 270 270 269 269 269 269 269 269 270 270 270 270 270 270 270 270 270 270 270 271 274 276 277 278 278 279 278 275 275 275 274 275 275 275 275 275 276 276 277 278 280 280 279 279 279 283 284 285 286 286 287 288
279 278 278 278 278 278 278 279 279 279 279 279 278 279 278 276 275 274 274 273 273 273 272 272 271 271 271 271 271 269 269 268 268 268 268 268 268 267 268 268 268 268 268 268 268 268 268 268 268 268 268 269 269 272 275 276 276 277 277 277 274 274 274 274 274 274 274 274 274 274 275 275 276 277 277 278 278 278 278 279 279 280 281 283 286
276 277 278 278 279 278 278 277 277 278 277 277 277 276 275 274 274 274 272 272 271 271 270 271 270 270 269 268 269 267 266 267 266 266 266 266 266 266 267 267 267 267 266 266 266 265 266 266 266 266 266 266 267 272 274 274 275 275 276 275 272 272 271 271 271 272 272 272 272 273 273 273 273 274 275 277 276 277 277 278 278 279 280 280 281
276 276 276 277 277 277 278 278 278 277 277 276 276 275 275 273 272 272 270 270 269 269 269 269 268 268 268 268 266 265 265 265 266 265 265 265 265 265 264 265 265 265 265 265 265 265 264 264 265 265 265 264 265 271 272 272 273 274 275 271 270 269 268 268 268 269 269 270 271 272 272 272 273 273 276 278 278 277 277 277 278 278 279 280 281
277 277 278 278 278 277 277 276 276 276 275 274 274 274 273 271 270 269 268 268 268 267 268 268 268 267 266 266 266 265 264 264 264 263 263 263 263 263 263 263 263 263 263 263 263 263 264 263 263 263 263 263 264 267 270 272 272 273 272 268 268 268 267 267 267 268 269 269 270 270 271 271 271 271 275 277 278 279 276 276 276 277 278 279 280
277 277 277 277 276 276 276 277 275 274 273 273 272 272 271 269 268 268 266 267 266 267 267 266 266 264 265 265 264 262 263 262 262 261 261 262 262 262 262 262 262 261 261 262 262 262 262 263 262 262 262 262 263 266 270 271 271 272 271 268 267 266 266 266 267 268 269 269 270 273 273 271 271 271 276 277 278 277 274 274 274 275 275 276 277
277 278 278 277 276 276 276 274 274 272 272 270 269 269 269 268 267 267 266 265 266 266 265 264 265 264 264 263 262 262 261 261 260 261 261 260 261 261 261 261 261 261 261 261 261 261 261 261 261 262 265 264 262 264 268 269 270 271 269 267 267 267 266 266 267 267 268 268 269 271 273 272 272 273 276 277 278 276 274 274 274 274 274 274 276
276 276 277 277 276 274 273 273 272 271 269 268 267 268 266 266 266 266 265 264 265 265 264 264 264 263 262 261 260 260 260 260 260 260 260 260 260 260 260 260 260 260 260 260 260 260 260 260 261 261 261 261 261 261 263 269 270 271 271 268 267 266 265 266 266 266 266 267 267 268 270 273 275 276 276 277 277 278 275 274 274 273 273 273 277
275 276 278 275 275 275 274 271 270 269 268 267 266 266 266 265 265 264 264 265 264 264 263 263 262 261 260 260 259 259 259 259 259 259 260 260 260 260 260 259 259 259 259 259 259 259 259 259 260 260 260 261 261 261 262 268 270 271 271 270 267 266 266 266 266 266 266 266 267 268 269 272 274 275 275 276 276 276 276 274 274 274 274 275 277
275 275 276 275 272 270 269 269 268 267 266 265 265 265 264 264 263 262 263 264 263 263 262 260 260 259 259 258 257 258 258 258 258 258 258 258 259 259 259 259 259 259 258 258 258 259 258 259 259 260 260 260 262 265 262 266 269 270 271 272 268 267 268 267 266 266 267 267 268 268 268 270 273 274 275 275 276 276 277 273 273 277 278 280 277
275 274 273 273 270 269 268 267 267 266 266 265 262 262 262 262 261 262 263 262 262 261 260 259 258 258 257 257 257 257 257 257 257 258 257 257 258 258 258 258 258 258 258 257 257 258 258 258 258 259 259 260 260 261 266 264 268 270 271 272 272 271 273 270 268 267 267 268 268 268 268 272 274 274 275 276 276 276 276 273 277 278 279 279 279
273 273 272 271 270 268 267 266 266 265 263 263 261 261 260 260 261 263 262 260 259 259 258 257 256 256 256 256 256 256 257 256 257 257 256 256 257 257 257 257 258 257 257 257 257 257 257 257 257 257 258 259 260 261 264 267 267 270 271 272 273 273 273 270 269 268 268 268 268 267 268 273 274 275 275 276 276 276 274 277 278 278 278 278 275
272 270 270 269 269 267 266 264 264 263 262 260 259 259 260 258 261 261 260 259 258 257 256 255 255 255 255 255 255 255 255 255 256 256 256 256 257 256 256 257 257 257 257 256 256 256 256 256 256 257 258 259 260 261 261 264 268 270 271 272 273 273 274 274 269 269 269 268 271 274 275 275 275 275 276 276 275 275 276 276 276 276 276 274 274
268 267 267 267 265 264 264 263 263 262 262 260 259 259 257 259 260 260 259 258 256 254 254 254 254 254 254 254 255 255 255 256 256 256 256 256 256 257 256 257 256 256 256 256 256 256 256 256 257 258 259 260 261 261 262 262 265 267 268 270 272 273 273 273 273 271 273 275 275 275 275 275 275 273 271 270 269 270 273 275 276 276 273 273 274
268 268 265 264 263 263 262 261 261 260 259 259 257 258 259 259 257 259 258 256 254 254 254 254 254 254 254 254 254 255 256 256 254 256 256 256 257 256 256 256 256 256 256 256 256 256 257 258 258 259 260 261 262 263 264 264 265 265 265 266 267 267 270 272 269 268 270 269 270 271 270 273 273 274 275 275 274 274 273 272 272 272 273 273 274
267 266 263 262 262 262 261 260 261 261 259 258 257 257 257 256 256 257 255 254 254 254 254 253 253 253 254 254 254 257 257 256 255 255 255 256 256 256 256 256 256 256 256 257 257 258 259 259 259 260 262 263 264 265 265 265 265 266 266 267 267 267 266 266 265 266 266 267 267 270 270 269 269 269 269 269 269 269 270 271 271 272 272 273 274
265 263 262 264 261 260 259 259 259 260 258 256 255 255 255 256 258 256 254 253 253 254 254 252 253 254 254 255 255 255 255 255 255 255 255 256 256 256 256 257 259 259 259 259 260 262 263 263 264 264 264 264 264 265 265 270 269 272 270 269 269 269 269 269 270 273 269 268 267 266 266 266 266 266 267 267 268 268 269 270 270 270 271 272 273
263 262 261 260 259 258 258 258 258 258 256 255 255 255 255 257 255 254 253 252 253 253 251 252 254 253 254 254 255 254 254 255 255 255 255 255 260 264 263 261 261 265 268 270 270 265 266 266 266 267 267 265 265 267 272 273 273 273 273 275 275 275 275 273 275 277 275 271 270 270 270 269 268 268 267 268 268 268 268 269 269 272 272 272 273
262 260 258 258 258 258 256 256 257 256 255 255 255 255 254 254 255 256 254 253 252 253 253 254 254 253 255 256 255 255 255 254 255 255 255 255 255 257 263 266 267 267 268 269 270 271 271 271 268 266 268 272 272 273 273 273 274 273 273 274 275 275 276 276 276 273 271 270 269 268 268 268 268 268 268 269 269 269 269 269 269 270 271 272 273
Wind_Speed
4 5 7 8 8 8 8 8 9 10 11 11 12 12 12 10 12 13 9 11 10 9 8 8 8 7 8 8 6 6 6 6 8 7 8 8 9 10 9 8 8 8 8 6 5 4 4 4 4 3 1 3 6 8 8 8 6 5 4 3 6 4 2 3 3 4 5 0 2 3 5 3 3 3 5 6 5 3 3 5 5 3 3 4 5
5 8 9 8 9 9 8 9 9 13 11 11 12 11 10 11 12 10 10 10 10 8 7 8 6 3 3 3 3 6 7 8 7 6 6 7 8 9 9 9 9 8 8 7 7 6 6 5 5 4 4 4 4 2 1 1 2 3 4 3 2 6 6 5 5 6 0 5 3 3 4 5 4 4 5 6 5 4 5 5 5 5 5 5 3
7 7 8 9 9 10 9 9 9 8 9 10 9 11 12 11 10 9 10 10 10 9 9 7 6 8 8 7 7 4 4 4 3 3 4 7 7 7 7 8 8 9 9 8 7 7 7 6 5 4 3 4 3 3 2 1 2 4 5 5 4 1 1 2 6 8 6 2 2 1 4 2 4 4 6 7 4 5 5 6 6 5 6 5 4
8 8 9 8 8 8 9 10 9 9 10 11 11 11 10 10 10 10 10 10 10 10 8 6 6 6 7 7 8 9 5 7 9 10 10 10 9 8 8 7 7 7 7 7 7 7 7 6 5 4 3 1 1 2 1 2 1 2 3 5 3 3 3 5 6 7 4 7 3 7 3 2 6 7 9 5 6 7 6 7 4 6 5 4 3
6 8 8 8 10 11 10 8 7 10 10 10 10 9 8 10 9 9 9 9 9 10 10 8 10 10 8 10 10 11 11 11 10 11 10 9 10 10 10 9 8 7 7 7 6 6 5 5 5 4 3 2 1 1 2 3 2 2 2 3 3 6 5 4 4 6 7 7 6 3 1 2 6 5 2 6 3 4 7 6 5 5 6 6 5
4 5 6 6 7 7 8 7 8 9 10 8 8 9 9 9 10 9 9 10 10 10 10 10 10 10 11 11 10 8 9 9 9 8 9 9 7 7 11 11 11 10 9 9 8 7 7 5 4 5 4 4 2 2 2 2 3 3 5 5 5 5 6 4 4 4 9 9 5 3 3 3 1 2 1 7 2 4 4 4 7 7 5 6 6
5 6 5 7 7 6 6 7 8 11 9 6 7 9 10 9 9 9 9 9 9 11 11 10 11 10 10 9 7 6 6 5 4 5 6 7 8 9 8 10 10 11 10 10 10 10 9 7 6 5 4 5 3 3 3 3 3 3 2 3 5 5 3 6 6 6 4 7 7 8 5 2 2 1 5 1 6 2 4 7 7 4 5 5 7
4 4 5 5 4 4 6 7 9 9 5 6 8 9 10 10 10 10 9 10 9 9 12 10 10 9 9 9 8 8 6 5 6 6 6 7 10 9 8 8 9 10 10 10 10 10 9 9 8 6 6 5 4 4 3 4 4 3 2 2 3 3 4 6 6 5 6 4 7 12 11 5 3 1 3 3 4 6 6 3 3 6 4 6 8
3 4 5 4 5 5 5 8 7 8 7 8 8 8 7 8 9 9 11 10 9 10 11 11 10 10 9 7 9 6 6 6 5 7 8 8 10 10 10 9 9 10 10 10 10 10 9 8 8 8 7 6 4 5 4 4 4 4 6 4 4 4 4 5 5 6 5 7 5 7 7 11 8 6 3 2 5 4 7 4 5 2 3 7 9
3 4 4 4 4 4 5 5 8 7 6 7 7 7 8 7 9 10 11 9 8 9 10 11 10 9 11 10 10 8 7 6 7 9 8 8 9 9 8 9 8 9 9 9 11 10 9 9 9 9 8 7 7 6 5 6 5 5 4 4 4 4 4 4 6 6 6 6 6 6 5 4 5 7 6 6 5 6 12 7 5 6 7 8 9
3 4 4 4 3 4 5 7 5 5 6 7 8 8 7 8 7 10 8 8 8 9 10 11 10 10 10 10 10 9 7 8 10 10 8 9 9 9 8 8 8 8 8 8 9 10 10 9 8 8 8 8 8 8 7 6 6 5 5 4 4 5 5 5 5 5 6 6 7 6 8 8 9 8 7 7 8 9 7 8 6 7 9 8 6
3 4 4 4 5 6 5 6 6 6 7 9 8 7 8 7 6 9 9 8 7 7 9 10 10 11 10 10 11 9 9 9 10 10 9 9 8 8 6 7 8 7 8 9 10 9 8 8 8 9 9 8 8 6 7 7 6 5 5 5 4 4 4 5 5 6 6 6 7 6 7 7 8 8 6 7 7 8 8 12 8 3 5 7 6
3 2 3 4 4 4 5 4 5 7 7 7 8 7 6 6 6 9 9 7 7 6 9 9 10 10 10 9 8 8 9 9 8 9 7 8 7 9 9 9 8 10 9 10 10 10 8 9 9 8 7 7 7 7 7 6 6 6 6 6 5 5 5 4 5 5 6 6 6 7 6 6 8 6 6 7 7 6 7 10 6 4 10 5 3
2 2 2 2 3 3 3 4 5 6 6 7 6 6 5 6 6 9 7 6 6 7 7 9 10 9 8 8 7 7 7 7 7 7 6 6 6 7 7 6 7 7 8 8 7 7 7 6 6 8 7 7 7 7 7 7 6 6 5 6 6 6 4 4 4 5 5 6 6 7 7 7 7 5 7 6 7 6 8 9 9 5 4 8 3
2 2 3 2 2 3 4 4 4 5 5 6 5 5 5 6 6 7 7 6 6 6 6 8 8 7 7 7 7 6 7 6 6 5 6 7 6 6 6 6 6 6 6 6 6 7 7 7 7 7 7 7 7 8 8 8 7 7 6 6 6 5 5 5 5 5 6 6 6 6 7 7 6 6 6 7 5 8 8 8 7 12 10 6 7
2 2 2 2 2 3 4 4 4 4 5 4 5 4 4 4 4 4 4 4 4 4 4 5 6 6 6 7 7 6 6 6 6 5 5 5 5 5 5 5 5 5 5 6 7 6 7 8 8 8 7 7 6 6 6 7 7 7 7 7 8 6 6 7 7 5 6 6 6 6 6 7 6 7 6 7 6 6 7 7 6 8 11 14 7
4 4 4 3 3 3 3 4 4 4 4 4 3 2 3 3 3 4 3 2 3 3 4 4 4 6 6 7 7 7 6 6 6 5 4 3 3 3 3 3 4 4 5 4 6 5 6 6 7 8 8 7 7 7 6 5 5 6 6 7 8 7 6 8 7 7 7 6 6 6 7 7 7 6 5 6 7 6 6 6 7 10 9 10 12
5 4 4 4 4 4 4 4 4 4 4 3 3 2 1 2 2 3 2 3 2 3 3 4 4 5 6 6 6 5 5 5 4 4 4 5 5 5 5 6 6 5 4 5 5 6 6 5 5 6 6 6 7 7 7 7 6 6 5 5 5 5 6 6 6 6 8 7 6 6 6 7 6 6 7 6 6 7 7 7 7 8 7 12 12
6 6 6 6 6 5 5 5 5 5 5 5 4 4 3 3 2 3 3 2 2 2 2 3 4 4 4 4 4 5 4 4 3 3 3 3 4 4 4 4 5 6 7 8 8 8 7 8 6 6 5 5 5 5 5 6 6 7 7 6 5 4 5 6 7 6 7 6 7 8 7 7 6 7 7 6 6 6 7 7 7 6 8 10 11
8 7 7 7 7 7 6 6 6 6 5 5 5 4 5 4 4 2 1 2 3 4 4 5 4 5 5 5 4 4 4 4 4 4 4 4 4 4 4 4 4 4 4 4 5 6 8 8 8 9 9 8 8 7 6 5 5 4 5 6 7 6 6 7 7 5 5 6 7 8 8 8 8 6 7 7 7 6 6 7 7 7 9 8 9
9 8 8 8 7 6 6 6 6 5 5 4 4 5 5 4 4 4 4 3 4 4 5 4 5 4 5 4 3 3 4 3 4 4 4 4 4 4 4 3 4 5 4 6 6 7 6 7 7 8 7 8 8 9 8 7 8 8 7 6 6 6 6 7 7 9 7 5 6 7 8 8 7 7 8 7 7 7 6 7 6 7 8 7 7
8 7 7 6 6 5 5 4 4 4 4 4 4 4 4 4 4 3 3 4 5 4 5 4 4 4 4 4 3 2 3 3 4 4 4 4 4 4 4 4 4 4 3 4 5 5 5 6 6 7 8 7 7 8 8 7 8 8 9 7 8 8 8 8 6 7 8 7 7 7 9 8 7 7 8 8 8 8 7 7 7 7 8 8 7
9 8 7 7 6 6 6 7 7 7 7 6 5 5 4 3 3 2 4 1 3 3 4 4 4 4 3 3 2 3 3 3 4 4 4 5 4 4 4 5 5 5 4 4 4 4 5 5 5 6 6 6 7 7 7 7 8 8 9 9 8 8 9 10 10 9 9 7 8 9 9 8 6 8 8 7 7 8 8 8 9 7 8 8 7
5 5 4 5 5 5 5 6 6 5 5 6 5 3 2 3 3 3 3 3 3 3 3 3 3 2 0 1 1 1 2 2 3 3 3 4 4 4 4 4 5 4 6 5 4 5 5 5 5 6 6 6 7 7 8 7 8 8 10 11 11 10 10 10 10 11 10 9 9 10 10 8 7 9 9 8 7 7 8 9 9 8 8 9 7
5 6 6 5 5 6 6 6 5 5 5 4 5 4 4 4 4 3 2 2 3 3 3 2 3 1 1 0 1 1 1 2 2 3 3 3 4 4 4 4 5 5 5 6 6 4 5 6 7 7 8 8 8 8 9 9 8 7 9 10 11 11 11 12 11 11 11 11 11 12 12 10 8 10 10 8 8 9 8 9 10 9 8 8 7
6 5 6 8 7 5 5 5 6 5 5 4 5 4 4 4 4 3 3 2 3 3 4 4 3 2 1 1 0 0 1 2 3 4 4 4 4 4 4 4 4 5 5 4 6 6 5 7 7 6 7 8 8 9 9 10 9 9 9 10 10 10 10 11 12 12 12 11 11 13 13 11 10 10 11 10 8 10 9 9 10 10 9 9 9
8 8 6 4 5 7 8 7 6 5 5 5 5 5 4 4 4 4 3 4 4 4 4 4 3 1 1 2 3 4 3 4 4 4 4 4 5 5 5 6 5 5 6 8 7 8 7 6 8 7 8 9 9 9 9 10 9 9 9 10 11 11 11 11 11 12 12 12 13 13 14 12 12 12 12 11 11 10 9 11 10 10 9 9 10
4 5 6 9 9 7 7 7 6 6 5 5 5 6 6 6 6 5 5 4 4 4 4 3 2 0 1 2 3 3 4 4 4 5 5 5 5 6 5 5 4 6 7 8 9 10 10 8 9 9 9 9 10 11 10 9 8 8 9 10 11 12 13 13 13 13 12 13 13 14 14 14 13 13 12 12 11 11 10 11 10 9 9 10 10
7 9 9 9 9 8 7 6 6 5 6 7 6 5 4 5 5 5 5 6 4 4 3 2 1 1 1 1 2 2 2 3 4 5 6 6 6 6 6 6 6 7 7 8 9 9 10 11 10 10 11 10 11 11 9 8 8 10 9 10 12 12 12 13 13 14 14 14 13 12 13 13 15 17 21 19 17 15 11 11 11 9 9 10 10
10 10 11 10 9 7 6 6 6 7 8 7 7 7 7 7 6 5 5 4 4 4 4 3 2 1 1 2 2 2 2 2 4 5 5 5 6 7 8 9 9 9 9 10 10 10 9 10 12 13 12 11 11 10 12 21 20 14 13 11 11 12 12 12 13 14 14 14 13 13 13 19 21 22 22 23 23 23 22 17 14 11 10 11 11
10 10 9 7 6 6 5 6 8 9 10 9 8 8 7 7 7 6 6 5 5 4 4 3 1 0 1 1 3 4 4 5 4 5 5 6 7 7 7 8 9 10 10 11 10 12 12 11 11 12 13 12 11 11 21 23 24 26 18 13 13 13 12 12 12 13 15 13 13 12 12 15 17 17 17 21 21 24 24 25 25 23 18 14 12
10 8 6 6 7 7 8 8 9 10 8 7 8 8 7 8 7 5 4 4 4 3 2 1 2 2 4 5 5 5 6 6 6 6 6 6 6 7 8 9 10 11 11 10 11 11 12 12 11 12 13 13 13 17 24 24 25 26 23 16 13 13 11 13 11 13 12 12 14 12 11 10 12 13 15 15 16 19 22 23 24 24 24 25 23
7 7 8 8 8 9 10 10 8 8 8 9 9 7 8 8 5 3 3 4 3 3 3 3 4 4 5 5 5 6 5 6 6 6 6 7 8 9 9 9 11 9 9 11 12 12 13 11 11 13 14 14 13 19 23 26 26 26 26 22 13 13 13 13 14 14 14 14 12 13 12 12 11 21 18 13 14 14 16 21 25 26 26 26 25
6 5 6 6 6 6 8 9 8 7 7 6 4 6 3 1 3 4 5 4 3 3 3 3 3 3 3 4 5 5 5 5 5 7 7 8 9 9 9 8 10 10 10 11 11 12 12 11 11 12 13 14 14 17 24 26 26 27 27 24 15 15 15 14 15 14 14 13 15 15 14 14 13 14 12 14 13 12 14 15 15 15 15 19 23
5 5 6 8 8 8 7 6 7 8 6 4 3 3 4 4 5 6 3 4 4 3 3 3 3 3 3 4 5 4 5 5 5 6 7 7 8 9 9 9 9 10 11 11 12 13 13 11 11 11 12 14 12 21 24 27 27 28 28 24 16 16 16 18 18 17 18 15 15 16 15 16 16 14 10 19 16 17 16 17 16 17 16 16 16
6 7 7 7 7 9 9 10 7 5 4 4 5 5 6 5 4 6 4 4 3 3 3 2 3 2 3 4 4 4 5 5 6 6 6 8 7 7 9 9 9 9 9 9 11 9 12 13 11 11 12 15 14 22 25 26 26 26 28 17 15 16 17 17 17 17 17 16 15 13 13 13 15 16 21 30 26 21 19 19 19 18 17 17 17
6 7 8 7 6 6 7 4 4 5 6 5 5 5 7 5 5 4 4 3 3 2 2 2 1 3 3 4 4 4 5 5 5 7 8 8 9 9 8 6 10 9 10 10 10 11 10 11 13 12 12 15 14 18 24 26 26 28 23 14 15 15 16 17 18 17 17 17 17 16 14 15 17 17 24 29 29 27 19 20 21 22 19 16 16
6 4 4 4 4 3 3 7 6 4 4 4 4 6 6 5 4 3 3 2 2 1 0 1 2 3 3 3 4 4 5 5 5 6 8 8 7 7 8 6 8 11 11 10 10 11 10 9 11 13 11 14 15 17 25 26 27 27 24 16 14 14 15 16 17 17 16 16 18 27 24 19 19 19 24 27 27 23 18 19 20 20 21 20 19
6 6 5 4 4 3 4 4 6 7 3 4 4 6 6 4 3 3 2 1 0 0 2 2 2 2 2 3 3 4 4 6 6 7 7 9 8 8 8 7 8 9 11 10 10 11 11 9 9 12 18 19 15 17 24 25 28 26 21 14 13 13 15 15 15 15 15 16 17 17 24 23 22 24 31 29 30 25 18 17 17 18 20 21 19
4 4 6 4 4 6 4 5 5 5 3 4 4 5 4 4 3 2 1 1 1 2 2 2 2 2 2 3 3 4 5 6 8 8 7 8 8 8 8 8 8 8 10 10 9 10 12 11 9 11 11 11 14 14 16 27 26 26 26 17 12 12 13 15 15 15 14 14 16 16 18 24 27 28 28 28 27 28 20 17 16 17 18 23 16
3 4 3 5 5 5 6 5 5 5 4 3 4 5 4 3 3 2 1 1 2 2 2 1 1 2 2 3 4 4 6 6 6 8 8 7 7 8 9 8 10 9 9 10 11 10 11 11 9 9 9 10 10 14 15 25 26 26 27 23 12 12 12 13 12 13 13 14 13 14 14 19 26 29 30 32 33 32 30 22 18 16 17 21 23
1 4 5 5 5 6 7 5 4 5 4 3 4 4 3 3 2 1 2 2 1 1 1 0 1 2 3 4 5 5 5 6 6 7 8 8 7 7 8 9 9 9 12 12 11 10 10 10 9 8 9 10 11 19 16 22 26 27 26 28 18 14 16 15 15 13 13 13 13 13 12 20 31 31 31 32 33 31 31 21 23 32 36 34 24
3 3 4 7 7 7 6 6 4 4 4 3 4 4 3 2 2 2 2 2 1 0 0 1 2 3 4 5 5 5 7 5 7 7 8 9 8 8 8 8 10 11 11 12 11 10 10 10 10 8 8 9 10 12 22 20 24 27 28 27 29 24 28 19 15 15 13 14 11 12 14 25 30 32 31 32 31 33 28 22 31 33 33 36 31
2 4 7 6 7 6 7 5 4 4 3 3 4 4 2 1 3 2 2 1 0 0 1 2 3 4 5 5 5 6 6 6 7 7 7 8 9 8 8 7 9 9 10 11 9 8 9 9 11 10 8 9 10 11 16 24 23 27 27 28 28 30 30 19 17 14 14 14 14 14 16 28 31 32 32 32 32 31 25 33 33 33 34 32 21
8 8 7 7 11 11 8 6 4 4 4 3 3 3 1 2 1 2 0 1 1 1 1 3 4 4 5 5 5 6 6 6 7 7 7 7 8 7 9 7 7 9 9 10 10 8 9 10 10 11 11 11 11 11 11 16 25 26 28 29 30 31 30 31 21 15 15 15 22 33 35 33 32 33 34 33 28 28 31 30 32 33 31 17 15
5 5 7 6 6 6 7 7 4 4 4 3 3 2 1 2 1 0 1 1 1 1 2 4 4 4 5 5 6 6 6 7 7 6 6 6 7 8 8 9 8 9 9 10 11 9 9 9 10 11 12 12 12 11 12 12 13 18 20 27 32 32 33 33 30 24 31 36 36 35 38 36 32 27 20 15 14 15 24 29 31 31 18 14 13
10 9 8 7 7 7 6 6 5 3 4 3 2 1 3 2 1 1 1 1 1 2 3 4 4 5 5 5 5 6 6 5 5 5 5 6 6 7 8 9 9 9 9 9 10 9 10 10 11 12 12 12 11 10 10 10 10 11 12 15 17 18 26 28 21 17 21 21 25 26 21 27 25 33 33 31 28 27 22 18 14 13 13 14 13
4 7 6 6 6 7 6 6 5 5 4 3 2 2 2 1 2 2 1 1 2 3 4 4 5 4 5 5 6 7 7 6 5 5 6 6 6 6 8 9 9 9 10 11 10 10 11 12 12 11 11 10 11 10 10 10 11 12 12 12 13 12 11 11 13 14 15 17 16 20 24 17 16 16 16 13 13 13 14 14 12 11 11 14 18
9 7 7 8 6 6 5 5 4 4 4 3 3 3 2 2 2 1 1 1 3 4 4 4 5 4 5 5 5 5 6 6 6 5 6 6 8 8 9 10 10 9 9 10 11 12 11 11 10 11 11 11 12 11 10 17 20 25 22 17 13 11 12 11 14 22 17 13 13 13 11 12 12 13 13 12 12 11 12 13 15 13 12 11 12
4 5 5 4 5 5 6 5 4 4 3 2 3 3 2 2 2 2 2 2 4 3 3 4 4 4 5 5 5 5 5 6 6 7 7 7 9 16 13 11 11 17 24 25 22 15 13 12 11 9 8 11 11 13 26 32 30 31 32 33 30 30 29 23 26 34 24 13 10 10 9 9 10 10 12 12 12 12 11 11 10 13 13 11 12
7 7 5 5 4 5 5 4 3 3 2 2 3 4 3 3 3 3 3 3 3 3 3 4 4 4 5 6 5 5 5 5 5 6 6 8 10 9 16 21 21 21 22 24 24 26 28 27 20 15 14 26 29 31 30 30 31 31 30 31 31 30 31 32 33 23 15 10 9 9 10 10 11 11 11 13 13 14 13 12 12 11 11 12 12
Wind_Direction
8 23 29 26 26 26 28 27 24 29 27 25 32 30 31 30 39 35 21 26 32 27 29 33 30 27 38 41 43 24 33 39 44 37 45 39 34 32 31 35 37 35 28 31 33 40 40 27 24 13 15 171 174 193 192 194 190 185 162 156 169 175 209 142 155 127 126 135 348 323 317 310 296 298 265 254 247 250 240 219 236 217 228 207 215
26 32 25 27 27 29 31 32 27 34 23 27 33 30 32 33 40 36 29 31 32 29 32 43 31 48 72 30 43 33 23 32 38 29 42 46 43 38 33 26 29 38 36 33 33 35 37 32 27 26 17 345 341 14 109 116 125 149 142 170 217 186 205 177 172 124 226 197 196 289 320 304 284 297 276 261 252 255 230 228 228 219 223 224 238
35 33 31 27 25 32 36 32 33 33 33 33 28 35 32 33 34 39 37 37 31 28 33 34 32 39 51 34 31 28 37 17 34 27 46 54 53 50 41 36 33 27 23 30 38 32 34 37 34 36 33 15 351 345 5 256 203 185 178 191 199 255 199 167 179 195 182 124 112 73 284 297 312 288 265 249 250 244 238 234 228 230 228 221 212
38 28 28 22 23 34 37 34 25 30 32 30 26 30 32 33 32 37 39 38 36 30 36 30 47 54 53 53 45 59 32 7 19 18 13 22 27 26 36 37 37 34 31 31 32 38 38 35 26 32 29 47 26 328 332 293 262 232 215 228 183 187 214 225 201 205 139 137 262 213 231 154 300 260 243 254 207 227 225 234 232 231 235 241 233
40 34 25 23 28 28 31 27 25 35 32 30 25 27 32 31 31 38 41 41 41 36 36 39 40 38 33 40 40 31 25 23 21 14 12 17 19 14 8 9 19 33 30 33 38 29 40 44 39 29 25 23 29 318 273 258 261 261 260 257 221 220 230 231 217 209 221 223 174 97 343 278 230 253 355 277 224 229 238 235 235 235 233 231 228
53 45 29 21 29 28 26 25 38 41 36 23 25 31 32 31 31 34 42 41 39 38 39 50 53 53 47 44 36 32 32 19 21 5 5 12 12 13 22 24 18 13 14 14 19 24 21 31 40 37 27 12 5 315 304 310 264 231 216 217 237 251 250 229 249 225 229 238 239 217 150 183 232 271 63 281 328 238 259 250 238 235 231 231 235
39 44 33 35 20 34 33 32 34 44 29 19 32 35 35 35 32 34 40 44 42 44 43 50 54 53 60 64 64 56 54 20 1 11 12 360 19 23 21 26 26 27 22 24 17 14 10 11 19 34 36 30 14 360 328 294 289 272 281 232 231 238 243 254 233 239 241 253 257 258 259 199 157 123 249 347 315 313 243 236 250 252 244 242 238
56 46 43 33 30 33 42 36 38 37 19 30 39 35 34 31 32 31 34 39 41 49 53 52 64 59 62 62 57 52 49 29 15 13 20 17 26 15 18 21 25 30 27 22 20 18 13 7 4 9 19 32 26 17 336 325 326 315 301 269 279 250 230 233 246 232 228 236 220 246 253 236 186 183 174 217 259 284 300 287 271 249 251 244 239
60 61 45 36 30 28 31 41 34 34 27 33 34 34 35 34 36 36 38 34 33 46 60 58 64 67 67 63 62 48 48 38 27 34 31 21 32 16 18 14 22 26 26 22 18 15 15 9 6 5 4 5 23 13 357 350 335 324 321 313 274 264 239 240 244 248 231 245 252 251 248 252 253 238 222 185 246 274 273 231 258 280 236 250 244
62 62 58 50 37 36 34 48 42 32 28 34 33 33 39 41 41 43 38 34 28 40 57 63 65 68 66 59 61 50 41 41 48 40 34 26 35 22 14 16 14 21 19 21 18 12 12 11 14 12 6 358 2 6 3 0 352 341 319 312 310 298 286 262 244 251 246 252 238 257 254 268 267 274 259 258 261 208 258 265 229 228 239 243 232
77 67 60 62 41 46 38 51 44 37 38 42 38 33 32 39 40 50 39 35 29 36 49 57 59 59 64 61 60 54 43 47 45 39 32 35 35 23 19 10 13 18 18 19 23 12 8 13 13 10 16 14 10 5 356 351 346 342 326 326 316 299 294 292 284 269 266 264 255 240 248 240 245 244 243 234 239 258 268 262 259 226 229 257 254
96 82 66 52 49 38 38 46 39 36 40 40 38 34 36 34 37 58 42 33 31 32 48 53 57 58 59 56 55 49 47 47 46 41 31 38 32 30 16 22 16 13 18 19 18 12 13 10 10 13 13 9 6 353 353 350 342 345 341 337 321 309 302 297 290 286 274 265 262 258 254 250 250 246 237 220 230 246 247 266 265 285 284 239 270
100 100 74 54 58 53 47 44 48 43 43 40 39 39 35 36 37 57 44 29 32 33 52 54 58 57 56 55 53 51 50 49 46 45 31 34 25 27 24 22 11 16 12 15 9 7 9 12 12 13 8 4 356 358 348 348 350 346 342 337 332 322 306 300 291 276 273 271 271 273 270 266 260 261 249 246 242 238 243 264 258 180 256 281 273
138 117 98 85 74 60 58 57 53 51 47 44 43 44 38 44 41 58 48 32 32 42 46 57 57 61 61 64 60 56 54 52 47 47 32 36 31 33 31 23 18 15 4 10 353 357 10 12 10 9 6 1 1 357 356 349 352 350 339 337 328 315 317 303 283 279 280 270 273 277 274 266 265 264 257 249 248 246 250 245 267 256 214 260 283
143 110 102 104 84 81 79 71 65 62 57 52 48 44 46 45 44 51 52 31 38 42 48 58 58 58 63 66 66 61 59 55 53 48 39 34 26 32 26 19 22 4 6 346 355 5 4 6 9 11 6 3 0 359 356 355 354 349 345 333 323 315 319 315 298 290 290 286 280 264 269 274 268 262 260 257 248 244 248 248 240 268 270 239 260
154 131 126 127 133 107 90 88 90 84 76 64 60 53 53 48 48 49 52 30 27 38 43 56 58 62 61 62 58 59 56 56 49 40 36 40 31 34 18 16 8 1 354 357 355 5 4 1 2 3 360 2 2 1 358 356 351 353 342 342 331 328 333 321 306 301 287 280 276 279 281 270 264 261 254 257 253 250 250 257 243 248 258 273 253
182 171 177 168 136 140 135 129 113 105 103 111 116 119 109 90 77 65 47 30 30 31 46 44 50 55 49 52 48 46 48 50 44 37 35 34 45 28 21 353 6 8 349 354 352 355 1 2 357 355 355 354 354 356 354 355 353 350 344 337 332 328 330 318 311 307 292 285 281 274 269 277 277 268 260 256 255 256 250 247 235 244 249 257 268
191 187 186 181 176 166 166 162 156 159 160 172 186 189 170 142 132 111 79 69 28 45 48 48 51 53 47 43 42 44 41 32 30 26 19 27 11 11 6 11 5 352 359 352 356 355 354 0 356 347 346 347 347 345 348 346 350 345 337 325 313 322 321 312 306 302 298 294 286 287 277 274 271 272 263 250 251 250 252 246 242 244 238 251 260
191 193 187 187 183 183 176 176 183 180 179 179 181 182 188 202 196 160 138 135 119 87 74 57 56 58 60 51 47 32 24 24 3 3 20 34 9 5 5 348 353 355 358 354 353 349 351 347 351 343 340 339 334 337 339 338 341 336 334 328 318 321 315 308 303 305 295 300 296 293 288 280 274 270 270 265 252 251 251 247 250 239 242 244 256
196 193 194 190 188 186 181 176 179 183 184 186 176 168 171 186 167 163 144 105 64 52 53 51 38 47 37 40 34 40 30 26 9 3 354 357 345 1 353 358 344 345 348 350 347 344 340 341 339 339 335 335 336 333 336 330 325 316 311 317 311 321 317 308 300 294 291 294 293 292 287 283 281 278 277 270 264 249 244 250 246 243 248 242 248
199 195 193 192 191 190 187 181 179 181 181 176 172 171 179 176 170 166 126 97 71 61 61 51 54 47 55 45 26 32 25 22 16 15 1 342 330 346 345 324 338 343 347 348 345 341 336 333 330 328 327 324 327 325 329 330 328 319 317 308 306 307 303 299 302 303 298 287 280 278 280 279 280 279 275 274 272 261 250 245 244 246 249 242 236
199 199 192 189 191 189 191 185 173 170 192 193 198 181 182 168 175 166 117 93 88 65 70 59 58 59 54 37 8 22 20 23 17 4 7 351 341 335 333 344 346 318 346 333 329 326 327 324 325 321 321 319 315 314 315 320 314 313 308 310 309 309 305 298 295 290 291 292 287 285 284 281 271 265 271 273 269 270 262 255 245 232 245 248 216
198 196 191 185 180 177 177 178 183 183 185 187 198 176 178 166 150 146 112 126 114 106 89 86 66 57 31 11 12 3 360 6 7 345 352 338 335 326 336 344 328 324 327 322 314 313 311 311 308 306 305 308 306 307 307 308 305 304 302 301 300 299 297 296 295 288 285 285 284 277 273 273 278 275 269 261 263 264 262 260 259 239 243 241 226
204 197 184 181 175 174 171 181 188 190 190 195 197 189 169 140 137 131 125 140 130 130 108 95 87 63 9 7 342 312 351 327 339 307 312 310 314 314 320 328 313 319 319 314 312 307 306 305 303 301 302 302 306 303 303 299 297 300 302 300 302 299 292 288 285 287 287 284 279 282 275 268 265 269 268 264 257 256 260 263 263 257 248 252 230
203 197 189 181 177 177 188 189 196 208 211 205 191 188 164 166 152 145 161 182 154 150 127 143 146 164 215 215 267 256 269 298 297 296 291 295 297 300 306 303 307 307 305 310 311 307 304 304 306 307 307 307 304 303 301 300 298 296 293 294 295 296 294 290 286 282 282 284 283 276 276 275 267 269 269 263 256 255 255 258 262 263 257 255 247
197 189 179 188 190 189 194 204 210 208 197 188 180 181 190 181 195 182 175 191 204 171 170 170 187 183 199 211 245 268 299 314 316 316 318 311 311 310 305 297 292 301 302 296 294 300 292 296 295 292 292 295 297 297 296 297 299 301 298 294 291 288 288 287 287 286 283 280 277 277 277 275 270 265 268 267 260 259 258 257 258 261 260 259 259
194 187 188 182 195 205 208 208 206 198 189 181 175 192 195 194 214 222 212 197 200 179 187 191 191 181 16 346 346 345 343 340 335 327 325 326 325 322 321 317 314 308 313 317 313 306 300 289 293 293 291 292 294 292 292 294 296 296 295 295 296 293 288 286 281 280 280 279 276 275 275 272 268 264 265 266 265 262 259 258 255 259 255 258 259
189 182 185 197 205 209 209 207 204 201 202 198 199 193 192 195 209 218 216 213 211 187 190 192 167 28 343 325 332 326 338 331 329 330 327 325 324 323 320 312 315 316 315 315 313 311 307 304 297 298 296 297 295 294 292 293 294 296 296 291 290 291 291 289 288 284 280 276 274 273 271 270 266 264 263 263 260 262 259 260 256 253 252 252 253
191 201 200 202 207 208 206 207 208 205 203 210 210 215 215 211 216 205 191 211 193 175 186 181 172 205 263 274 294 306 299 328 325 327 329 326 327 323 322 322 318 314 311 306 304 303 304 305 303 299 303 303 300 297 299 304 304 298 291 289 290 288 289 289 288 287 285 284 281 275 272 269 266 262 259 258 257 254 255 262 257 250 248 251 253
200 204 207 210 210 206 207 206 212 207 209 211 212 210 205 203 214 217 203 216 146 189 169 175 185 221 264 278 289 302 326 338 336 332 328 327 330 332 329 326 321 317 315 313 310 308 303 302 306 305 304 302 298 297 302 308 308 304 304 301 295 290 287 284 284 285 282 279 278 279 279 276 273 270 267 265 262 260 256 252 256 254 249 251 252
208 210 215 215 213 216 216 213 215 212 213 210 209 211 210 211 214 206 205 191 173 165 157 147 172 216 266 324 348 347 353 356 345 339 340 342 336 332 326 319 316 316 315 314 314 310 308 306 306 306 305 302 299 300 308 310 309 309 309 305 300 295 286 280 277 276 280 280 277 275 276 278 279 278 275 270 264 263 262 259 256 254 249 246 253
214 219 220 223 220 216 217 219 222 221 216 213 216 218 211 218 214 211 199 155 140 123 108 84 38 14 11 5 353 353 358 351 354 346 343 337 330 327 323 318 315 317 315 313 309 305 305 310 309 307 303 300 301 305 311 310 309 309 308 305 301 295 292 287 282 279 277 279 281 281 277 276 274 274 276 276 271 268 266 264 262 259 257 250 243
217 218 220 219 216 214 214 222 227 225 219 222 215 211 217 220 205 194 131 112 101 92 79 50 29 20 8 2 360 2 355 352 350 344 335 334 328 322 320 320 314 311 312 308 307 309 305 309 308 306 303 302 301 310 312 310 308 309 308 307 299 292 288 286 285 282 282 282 284 283 283 277 273 277 278 276 279 279 273 269 267 265 261 256 250
226 228 230 235 235 237 231 229 232 235 230 236 221 223 233 159 138 117 109 96 92 65 64 45 36 16 6 6 15 13 359 346 340 334 332 326 325 316 316 314 310 312 310 306 305 303 304 306 307 306 302 302 302 313 311 308 308 308 307 305 296 292 288 283 282 281 282 281 281 286 287 286 285 285 283 284 283 280 282 279 274 266 261 258 255
229 235 233 230 231 236 244 252 244 234 230 209 204 157 125 114 115 100 88 89 74 66 46 37 25 7 15 20 22 9 346 332 327 325 322 316 314 312 312 312 310 307 309 306 308 308 305 306 306 305 302 299 301 309 308 307 307 306 304 303 298 296 295 292 291 292 292 292 288 283 281 280 283 282 278 282 282 281 280 277 272 268 263 259 256
220 216 228 215 218 217 217 226 225 201 192 170 163 150 120 115 96 102 92 84 76 61 43 33 20 16 34 28 16 349 331 324 320 318 313 307 307 304 305 309 304 300 296 296 295 296 299 303 304 303 301 297 298 307 307 305 305 304 305 303 300 296 291 288 286 288 286 285 284 281 282 281 281 279 281 281 281 282 281 280 276 270 265 259 255
234 206 227 224 217 212 216 186 148 155 143 141 136 125 120 115 94 84 84 69 66 55 34 25 24 34 31 21 360 340 321 315 314 311 306 304 305 303 297 299 296 295 296 297 294 294 297 299 300 298 296 295 296 304 304 304 305 304 304 297 293 290 287 288 287 289 289 287 285 284 282 282 280 279 282 284 283 282 280 277 275 276 275 272 264
229 242 245 255 236 223 192 157 142 121 115 121 120 118 113 104 100 87 80 72 72 68 38 60 48 31 18 4 349 330 313 310 305 299 297 296 295 291 289 295 291 298 295 292 293 293 290 291 292 294 294 293 295 301 304 304 303 302 299 295 292 289 285 285 287 285 287 287 287 288 289 289 291 291 292 289 286 282 276 276 278 278 278 274 270
218 219 238 245 223 179 150 129 129 125 116 99 103 102 99 102 105 98 92 99 106 163 75 52 32 24 5 354 325 316 304 300 295 290 291 290 290 287 289 290 284 285 286 290 291 290 289 286 282 285 293 295 295 299 303 303 300 298 297 288 284 280 283 284 287 289 288 287 288 288 288 287 286 285 286 286 285 283 277 275 272 272 270 270 267
231 236 226 215 152 116 126 141 136 130 113 104 93 92 99 114 122 118 119 158 166 112 85 57 34 15 348 318 302 297 291 289 287 287 283 280 284 288 286 289 286 283 286 288 287 286 287 287 286 285 286 286 290 292 297 298 297 295 295 292 285 284 285 286 283 283 288 284 287 288 288 289 289 289 290 291 292 288 280 267 262 262 265 267 272
236 235 169 151 157 154 150 141 128 123 114 106 102 100 116 130 143 124 184 169 122 87 61 47 19 319 289 283 280 273 278 275 272 278 280 282 281 283 290 288 290 288 283 285 285 284 284 282 280 276 278 283 283 289 291 293 294 294 294 294 286 278 276 278 278 276 273 277 278 280 284 288 291 291 290 289 287 285 285 286 281 268 256 263 270
259 200 156 143 129 121 117 110 114 120 120 113 110 115 135 147 138 194 199 123 91 89 67 17 286 273 272 271 269 268 263 267 272 273 279 280 275 276 282 288 286 288 288 286 286 285 284 283 280 277 279 282 285 288 288 288 290 292 292 291 290 281 282 280 279 272 275 273 274 278 278 282 284 283 285 284 284 283 280 275 272 276 277 275 270
154 137 174 148 143 147 148 142 140 135 128 130 117 128 150 156 174 219 145 119 123 108 256 255 273 270 266 266 265 264 266 264 268 266 271 279 283 284 281 280 285 287 285 286 286 284 286 287 287 282 279 280 278 276 280 282 285 288 291 291 290 289 288 287 283 282 278 276 273 270 270 276 277 280 281 281 281 280 280 276 275 275 273 272 271
180 168 164 152 143 146 144 151 146 139 128 129 125 138 154 165 244 142 132 132 168 206 236 260 263 264 265 266 263 262 262 263 264 268 267 273 281 281 282 281 282 283 287 289 286 286 287 287 292 293 282 276 274 272 273 277 282 284 288 290 290 290 290 285 281 278 279 276 277 272 267 272 275 277 278 279 280 279 277 277 276 276 276 276 276
181 175 169 165 164 165 153 151 155 144 140 131 125 123 155 221 208 119 195 185 216 219 249 262 260 262 264 263 263 261 262 259 259 259 269 274 279 284 288 282 279 282 281 284 287 285 284 287 289 289 289 283 274 269 266 269 275 281 287 289 290 289 287 286 284 280 275 275 274 277 278 278 279 282 287 290 290 289 287 285 282 280 279 275 273
139 147 170 159 140 141 150 157 168 156 136 127 120 134 193 228 155 173 208 206 227 257 265 260 260 260 263 268 272 268 260 258 259 254 254 265 275 286 284 287 284 279 279 281 286 286 281 283 284 285 283 279 274 269 269 267 264 270 274 280 282 283 282 281 277 275 276 276 278 279 281 286 290 290 288 280 272 269 270 271 274 275 271 268 267
185 181 149 142 146 149 164 167 176 180 150 146 148 196 210 238 241 239 241 252 263 259 264 266 268 269 269 270 271 276 274 265 264 264 260 264 272 273 277 280 281 283 282 279 281 284 285 282 282 280 278 276 273 271 270 270 272 274 268 266 271 269 268 269 269 268 269 270 271 272 270 268 269 275 278 277 276 277 278 276 272 267 267 266 265
169 154 154 143 154 163 172 175 187 181 162 160 186 224 233 229 239 248 245 262 270 264 266 269 274 274 275 271 270 271 277 283 273 271 281 280 267 264 270 274 280 280 285 284 281 283 282 282 277 272 272 276 282 283 275 276 276 271 269 268 261 259 256 240 254 260 256 255 255 260 263 260 263 265 268 266 265 262 260 263 261 264 265 266 267
161 170 161 167 165 165 173 172 184 165 165 178 216 237 237 231 243 245 230 251 265 267 272 277 277 279 278 274 270 274 275 279 286 273 257 256 274 277 272 271 258 248 253 268 277 281 277 279 274 284 290 281 286 285 280 293 294 298 298 294 288 282 275 268 253 257 257 249 242 252 246 254 250 257 256 256 257 256 260 260 262 260 258 256 262
158 143 151 142 153 155 160 167 181 170 174 188 241 259 249 240 242 246 223 235 263 274 279 278 274 275 277 279 277 274 277 279 282 290 292 280 264 281 282 283 288 287 288 290 293 294 295 293 290 275 277 293 296 295 301 304 304 302 299 301 300 300 299 299 300 301 304 302 295 285 279 273 271 271 272 272 269 264 260 256 248 260 262 262 261
158 143 151 155 156 146 142 156 180 165 177 208 251 260 258 260 239 238 222 236 250 270 274 275 281 277 277 282 285 285 281 280 280 288 291 297 303 289 288 289 289 292 295 297 300 300 300 301 301 301 301 300 301 303 304 304 304 305 307 309 309 308 307 307 308 306 304 295 293 288 284 279 275 273 274 274 274 272 265 259 255 252 252 257 262